Погода в Киндале

Россия / Томская область     59°09′09″N   80°34′45″E
темп.,
°C
ветер,
м/с
пор.,
м/с
влажн.,
%
обл.,
%
осадки,
мм/ч
давл.,
гПа
погр.,
м
27 января, чт
чт2701:00−27ю11100100 0.0 10309
04:00−27ю1110096 0.0 10309
07:00−27ююв2210098 0.0 10319
10:00−27ююв2210084 0.0 103218
13:00−19ю239643 0.0 1032100
16:00−16юв349648 0.0 103276
19:00−19ююв3599100 0.0 103250
22:00−19ююв469993 0.0 103273
28 января, пт
пт2801:00−20ююв3699100 0.0 103168
04:00−20ююв4798100 0.0 103087
07:00−20ююв469856 0.0 102992
10:00−17ююв5994100 0.0 1028221
13:00−14ю599099 0.0 1028318
16:00−13ю489298 0.1 1027347
19:00−14ю4696100 0.2 1027118
22:00−16ю4697100 0.0 1027104
29 января, сб
сб2901:00−17ююз359885 0.1 102770
04:00−19ююз349990 0.1 102753
07:00−20ююз3410088 0.1 102840
10:00−21ююз2210086 0.0 102831
13:00−16юз249672 0.1 1028134
16:00−15ююз229674 0.0 102959
19:00−20ююз2210078 0.0 103010
22:00−22юз22100100 0.0 103011
30 января, вс
вс3001:00−23юз22100100 0.0 103114
04:00−24ююз22100100 0.0 103110
07:00−24ююв22100100 0.0 103110
10:00−24ююв22100100 0.0 103118
13:00−16юв349666 0.0 1030110
16:00−15вюв469662 0.0 1029120
19:00−16вюв51094100 0.0 1028137
22:00−17вюв5119646 0.0 1027150
31 января, пн
пн3101:00−18юв5109657 0.0 1025134
04:00−16юв599483 0.0 1024148
07:00−13юв5996100 0.2 1023196
10:00−10юв4895100 0.8 1023261
13:00−7ю3793100 1.2 1023384
16:00−8ююз359396 0.1 1023168
19:00−14ююз349776 0.1 102541
22:00−16ююз349891 0.0 102550